Lawrenceville, IL

2:28 PM CDT on July 27, 2017 (GMT -0500)
Lawrenceville-Vincennes International

Weather History for KLWV - March, 2013

Change the Weather History Date:

Wednesday, March 20, 2013

  Actual Average Record
Temperature  
Mean Temperature 30 °F 46 °F  
Max Temperature 35 °F 57 °F 84 °F (2012)
Min Temperature 24 °F 36 °F 24 °F (2013)
Degree Days  
Heating Degree Days 35 19  
Month to date heating degree days 539 437  
Since 1 July heating degree days 4235 4112  
Cooling Degree Days 0 0  
Month to date cooling degree days 0 0  
Year to date cooling degree days 0 0  
Moisture  
Dew Point 16 °F    
Average Humidity 61    
Maximum Humidity 81    
Minimum Humidity 41    
Precipitation  
Precipitation 0.00 in 0.12 in 1.45 in (1984)
Month to date precipitation 2.61 1.87  
Year to date precipitation 11.17 6.26  
Sea Level Pressure  
Sea Level Pressure 30.16 in    
Wind  
Wind Speed 15 mph (WNW)    
Max Wind Speed 29 mph    
Max Gust Speed 35 mph    
Visibility 10 miles    
Events      
T = Trace of Precipitation, MM = Missing Value Source: NWS Daily Summary

Daily Weather History Graph

Daily Weather History Graph

Search for Another Location

Airport or City:

Trip Planner

Search our weather history database for the weather conditions in past years. The results will help you decide how hot, cold, wet, or windy it might be!

Date:

Astronomy

Mar. 20, 2013 Rise Set
Actual Time 6:53 AM CDT 7:02 PM CDT
Civil Twilight 6:27 AM CDT 7:29 PM CDT
Nautical Twilight 5:55 AM CDT 8:00 PM CDT
Astronomical Twilight 5:24 AM CDT 8:31 PM CDT
Moon 12:40 PM CDT (3/20) 2:29 AM CDT (3/20)
Length of Visible Light 13h 02m
Length of Day
12h 09m
First Quarter, 59% of the Moon is Illuminated
Mar 20
First Quarter
Mar 27
Full
Apr 2
Last Quarter
Apr 10
New
Apr 18
First Quarter

Hourly Weather History & Observations

Time (CDT) Temp. Windchill Dew Point Humidity Pressure Visibility Wind Dir Wind Speed Gust Speed Precip Events Conditions
12:53 AM 32.0 °F - 26.1 °F 79% 30.17 in 10.0 mi Calm Calm - N/A   Clear
1:53 AM 27.0 °F - 21.9 °F 81% 30.16 in 10.0 mi Calm Calm - N/A   Clear
2:53 AM 30.9 °F 23.5 °F 21.0 °F 67% 30.15 in 10.0 mi WSW 8.1 mph - N/A   Clear
3:53 AM 30.9 °F 25.2 °F 21.0 °F 67% 30.12 in 10.0 mi WSW 5.8 mph - N/A   Clear
4:53 AM 30.9 °F 23.5 °F 19.9 °F 64% 30.12 in 10.0 mi West 8.1 mph - N/A   Clear
5:53 AM 34.0 °F 24.2 °F 21.0 °F 59% 30.14 in 10.0 mi WNW 15.0 mph 24.2 mph N/A   Clear
6:53 AM 30.0 °F 23.2 °F 19.9 °F 66% 30.16 in 10.0 mi WNW 6.9 mph - N/A   Clear
7:53 AM 30.9 °F 21.7 °F 19.0 °F 61% 30.17 in 10.0 mi NW 11.5 mph - N/A   Clear
8:53 AM 30.9 °F 18.4 °F 19.0 °F 61% 30.19 in 10.0 mi NW 20.7 mph - N/A   Mostly Cloudy
9:53 AM 30.9 °F 19.8 °F 19.9 °F 64% 30.19 in 10.0 mi WNW 16.1 mph - N/A   Overcast
10:18 AM 30.2 °F 17.4 °F 19.4 °F 64% 30.18 in 10.0 mi WNW 20.7 mph 26.5 mph N/A   Overcast
10:25 AM 32.0 °F 20.1 °F 17.6 °F 55% 30.18 in 10.0 mi NW 19.6 mph 26.5 mph N/A   Mostly Cloudy
10:53 AM 33.1 °F 20.9 °F 12.9 °F 43% 30.20 in 10.0 mi NW 21.9 mph 29.9 mph N/A   Partly Cloudy
11:53 AM 33.1 °F 20.1 °F 12.9 °F 43% 30.21 in 10.0 mi WNW 25.3 mph - N/A   Partly Cloudy
12:53 PM 32.0 °F 19.8 °F 14.0 °F 48% 30.19 in 10.0 mi WNW 20.7 mph 27.6 mph N/A   Mostly Cloudy
1:53 PM 33.1 °F 21.5 °F 12.0 °F 42% 30.17 in 10.0 mi WNW 19.6 mph 29.9 mph N/A   Mostly Cloudy
2:53 PM 34.0 °F 22.4 °F 14.0 °F 44% 30.15 in 10.0 mi West 20.7 mph 29.9 mph N/A   Overcast
3:53 PM 30.9 °F 18.7 °F 12.0 °F 46% 30.15 in 10.0 mi WNW 19.6 mph 31.1 mph N/A   Overcast
4:53 PM 30.9 °F 19.1 °F 14.0 °F 50% 30.15 in 10.0 mi West 18.4 mph 26.5 mph N/A   Overcast
5:53 PM 30.0 °F 17.2 °F 12.0 °F 47% 30.14 in 10.0 mi WNW 20.7 mph 28.8 mph N/A   Mostly Cloudy
6:53 PM 28.9 °F 16.5 °F 10.9 °F 47% 30.14 in 10.0 mi WNW 18.4 mph 24.2 mph N/A   Scattered Clouds
7:53 PM 28.0 °F 16.5 °F 10.0 °F 47% 30.13 in 10.0 mi WNW 15.0 mph - N/A   Scattered Clouds
8:53 PM 27.0 °F 17.3 °F 12.0 °F 53% 30.13 in 10.0 mi WNW 10.4 mph - N/A   Partly Cloudy
9:53 PM 27.0 °F 16.7 °F 12.9 °F 56% 30.12 in 10.0 mi WNW 11.5 mph - N/A   Mostly Cloudy
10:53 PM 26.1 °F 16.2 °F 12.0 °F 55% 30.12 in 10.0 mi NW 10.4 mph - N/A   Clear
11:53 PM 25.0 °F 13.6 °F 10.9 °F 55% 30.12 in 10.0 mi NW 12.7 mph - N/A   Clear